When you browse on this site, cookies collect data to enhance your experience and personalize the content and advertising you see.
Visit our Privacy Policy to learn more. By continuing to use the site, you agree to this use of cookies and data.
  • In Germany
  • List of Countries
  • For 7 days
  • Water Temperature
  • Weather Map
  • Weather Widgets
  • user-avatar
    Login

    Hourly Weather Blagoevgrad

    Today, 31 May, Sunday

    Time Temperature Precipitation Wind Pressure Humidity
    00:00 +12°C° 0 mm 1 mps 719 mmHg 82%
    01:00 +12°C° 0 mm 1 mps 719 mmHg 82%
    02:00 +10°C° 0 mm 0 mps 719 mmHg 83%
    03:00 +10°C° 0 mm 0 mps 719 mmHg 84%
    04:00 +10°C° 0 mm 0 mps 718 mmHg 85%
    05:00 +9°C° 0 mm 0 mps 718 mmHg 86%
    06:00 +11°C° 0 mm 0 mps 718 mmHg 81%
    07:00 +14°C° 0 mm 1 mps 718 mmHg 77%
    08:00 +16°C° 0 mm 1 mps 719 mmHg 71%
    09:00 +18°C° 0.4 mm 1 mps 718 mmHg 69%
    10:00 +19°C° 0.4 mm 1 mps 718 mmHg 66%
    11:00 +20°C° 0.4 mm 1 mps 718 mmHg 63%
    12:00 +19°C° 0.9 mm 2 mps 718 mmHg 64%
    13:00 +20°C° 0.9 mm 2 mps 717 mmHg 65%
    14:00 +20°C° 0 mm 2 mps 717 mmHg 63%
    15:00 +19°C° 1 mm 2 mps 717 mmHg 67%
    16:00 +19°C° 1 mm 2 mps 717 mmHg 71%
    17:00 +18°C° 1 mm 2 mps 716 mmHg 75%
    18:00 +16°C° 0.8 mm 1 mps 717 mmHg 80%
    19:00 +15°C° 0.8 mm 1 mps 717 mmHg 85%
    20:00 +13°C° 0.8 mm 1 mps 717 mmHg 89%
    21:00 +13°C° 0.1 mm 1 mps 717 mmHg 89%
    22:00 +12°C° 0.1 mm 1 mps 717 mmHg 89%
    23:00 +12°C° 0.1 mm 1 mps 717 mmHg 89%

    Tomorrow, 1 June, Monday

    Time Temperature Precipitation Wind Pressure Humidity
    00:00 +11°C° 0 mm 1 mps 717 mmHg 90%
    01:00 +11°C° 0 mm 1 mps 717 mmHg 90%
    02:00 +11°C° 0 mm 1 mps 717 mmHg 91%
    03:00 +10°C° 0 mm 1 mps 717 mmHg 91%
    04:00 +10°C° 0 mm 1 mps 717 mmHg 91%
    05:00 +10°C° 0 mm 1 mps 717 mmHg 91%
    06:00 +11°C° 0 mm 1 mps 717 mmHg 88%
    07:00 +12°C° 0 mm 1 mps 717 mmHg 84%
    08:00 +14°C° 0 mm 2 mps 717 mmHg 81%
    09:00 +15°C° 0.1 mm 2 mps 717 mmHg 76%
    10:00 +16°C° 0.1 mm 2 mps 718 mmHg 70%
    11:00 +17°C° 0.1 mm 3 mps 718 mmHg 65%
    12:00 +18°C° 0.1 mm 3 mps 717 mmHg 63%
    13:00 +19°C° 0.1 mm 3 mps 717 mmHg 61%
    14:00 +20°C° 0.1 mm 3 mps 717 mmHg 59%
    15:00 +19°C° 0.2 mm 3 mps 717 mmHg 61%
    16:00 +19°C° 0.2 mm 3 mps 717 mmHg 64%
    17:00 +18°C° 0.2 mm 4 mps 716 mmHg 66%
    18:00 +17°C° 0.1 mm 3 mps 716 mmHg 73%
    19:00 +15°C° 0.1 mm 2 mps 716 mmHg 79%
    20:00 +13°C° 0.1 mm 2 mps 716 mmHg 86%
    21:00 +12°C° 0 mm 1 mps 717 mmHg 88%
    22:00 +11°C° 0 mm 1 mps 717 mmHg 89%
    23:00 +11°C° 0 mm 1 mps 717 mmHg 90%

    Day after tomorrow, 2 June, Tuesday

    Time Temperature Precipitation Wind Pressure Humidity
    00:00 +10°C° 0 mm 1 mps 717 mmHg 91%
    01:00 +10°C° 0 mm 1 mps 717 mmHg 91%
    02:00 +10°C° 0 mm 1 mps 716 mmHg 91%
    03:00 +9°C° 0 mm 1 mps 716 mmHg 92%
    04:00 +9°C° 0 mm 1 mps 716 mmHg 92%
    05:00 +9°C° 0 mm 1 mps 716 mmHg 93%
    06:00 +11°C° 0 mm 1 mps 716 mmHg 87%
    07:00 +13°C° 0 mm 1 mps 716 mmHg 81%
    08:00 +15°C° 0 mm 2 mps 717 mmHg 75%
    09:00 +16°C° 0 mm 2 mps 717 mmHg 68%
    10:00 +17°C° 0 mm 3 mps 717 mmHg 62%
    11:00 +19°C° 0 mm 4 mps 717 mmHg 56%
    12:00 +19°C° 0.2 mm 4 mps 716 mmHg 58%
    13:00 +19°C° 0.2 mm 4 mps 716 mmHg 60%
    14:00 +19°C° 0.2 mm 4 mps 715 mmHg 61%
    15:00 +19°C° 0.3 mm 4 mps 715 mmHg 64%
    16:00 +18°C° 0.3 mm 4 mps 715 mmHg 67%
    17:00 +17°C° 0.3 mm 4 mps 715 mmHg 70%
    18:00 +16°C° 0.1 mm 3 mps 715 mmHg 75%
    19:00 +13°C° 0.1 mm 3 mps 715 mmHg 79%
    20:00 +12°C° 0.1 mm 2 mps 715 mmHg 84%
    21:00 +10°C° 0 mm 2 mps 716 mmHg 84%
    22:00 +9°C° 0 mm 2 mps 716 mmHg 85%
    23:00 +9°C° 0 mm 1 mps 716 mmHg 86%

    3 June, Wednesday

    Time Temperature Precipitation Wind Pressure Humidity
    00:00 +8°C° 0 mm 1 mps 716 mmHg 87%
    01:00 +8°C° 0 mm 1 mps 716 mmHg 87%
    02:00 +7°C° 0 mm 1 mps 716 mmHg 88%
    03:00 +7°C° 0 mm 1 mps 716 mmHg 87%
    04:00 +6°C° 0 mm 1 mps 716 mmHg 87%
    05:00 +6°C° 0 mm 1 mps 716 mmHg 87%
    06:00 +8°C° 0 mm 1 mps 716 mmHg 80%
    07:00 +10°C° 0 mm 1 mps 716 mmHg 74%
    08:00 +13°C° 0 mm 1 mps 716 mmHg 67%
    09:00 +14°C° 0 mm 1 mps 716 mmHg 60%
    10:00 +16°C° 0 mm 2 mps 716 mmHg 52%
    11:00 +18°C° 0 mm 2 mps 716 mmHg 45%
    12:00 +18°C° 0 mm 2 mps 716 mmHg 44%
    13:00 +19°C° 0 mm 2 mps 716 mmHg 44%
    14:00 +20°C° 0 mm 2 mps 716 mmHg 44%
    15:00 +20°C° 0 mm 2 mps 716 mmHg 46%
    16:00 +19°C° 0 mm 2 mps 716 mmHg 48%
    17:00 +19°C° 0 mm 2 mps 716 mmHg 50%
    18:00 +17°C° 0 mm 2 mps 715 mmHg 57%
    19:00 +15°C° 0 mm 1 mps 715 mmHg 64%
    20:00 +13°C° 0 mm 1 mps 715 mmHg 71%
    21:00 +13°C° 0 mm 1 mps 716 mmHg 71%
    22:00 +13°C° 0 mm 1 mps 716 mmHg 71%
    23:00 +12°C° 0 mm 1 mps 717 mmHg 71%

    4 June, Thursday

    Time Temperature Precipitation Wind Pressure Humidity
    00:00 +12°C° 0 mm 1 mps 717 mmHg 72%
    01:00 +12°C° 0 mm 1 mps 717 mmHg 73%
    02:00 +11°C° 0 mm 1 mps 716 mmHg 75%
    03:00 +11°C° 0 mm 1 mps 716 mmHg 75%
    04:00 +11°C° 0 mm 1 mps 717 mmHg 76%
    05:00 +11°C° 0 mm 1 mps 717 mmHg 77%
    06:00 +13°C° 0 mm 1 mps 717 mmHg 71%
    07:00 +15°C° 0 mm 1 mps 717 mmHg 65%
    08:00 +19°C° 0 mm 1 mps 718 mmHg 59%
    09:00 +20°C° 0 mm 1 mps 718 mmHg 55%
    10:00 +21°C° 0 mm 2 mps 718 mmHg 52%
    11:00 +24°C° 0 mm 2 mps 719 mmHg 48%
    12:00 +24°C° 0 mm 3 mps 718 mmHg 47%
    13:00 +25°C° 0 mm 3 mps 718 mmHg 46%
    14:00 +26°C° 0 mm 3 mps 718 mmHg 45%
    15:00 +25°C° 0 mm 3 mps 718 mmHg 49%
    16:00 +25°C° 0 mm 3 mps 718 mmHg 52%
    17:00 +24°C° 0 mm 3 mps 718 mmHg 56%
    18:00 +21°C° 0.1 mm 3 mps 718 mmHg 64%
    19:00 +19°C° 0.1 mm 2 mps 718 mmHg 73%
    20:00 +17°C° 0.1 mm 2 mps 718 mmHg 82%
    21:00 +17°C° 0 mm 2 mps 718 mmHg 82%
    22:00 +16°C° 0 mm 2 mps 718 mmHg 83%
    23:00 +15°C° 0 mm 2 mps 719 mmHg 84%

    5 June, Friday

    Time Temperature Precipitation Wind Pressure Humidity
    00:00 +15°C° 0 mm 2 mps 719 mmHg 84%
    01:00 +15°C° 0 mm 2 mps 719 mmHg 85%
    02:00 +15°C° 0 mm 2 mps 719 mmHg 85%
    03:00 +15°C° 0 mm 2 mps 719 mmHg 85%
    04:00 +15°C° 0 mm 1 mps 719 mmHg 85%
    05:00 +15°C° 0 mm 1 mps 719 mmHg 85%
    06:00 +18°C° 0 mm 1 mps 719 mmHg 79%
    07:00 +20°C° 0 mm 1 mps 720 mmHg 73%
    08:00 +22°C° 0 mm 1 mps 720 mmHg 66%
    09:00 +23°C° 0 mm 2 mps 720 mmHg 61%
    10:00 +25°C° 0 mm 2 mps 720 mmHg 55%
    11:00 +26°C° 0 mm 3 mps 721 mmHg 50%
    12:00 +27°C° 0 mm 3 mps 720 mmHg 49%
    13:00 +27°C° 0 mm 3 mps 720 mmHg 49%
    14:00 +28°C° 0 mm 4 mps 720 mmHg 49%
    15:00 +28°C° 0.1 mm 3 mps 720 mmHg 52%
    16:00 +27°C° 0.1 mm 3 mps 720 mmHg 55%
    17:00 +27°C° 0.1 mm 3 mps 720 mmHg 58%
    18:00 +25°C° 0 mm 3 mps 720 mmHg 65%
    19:00 +23°C° 0 mm 2 mps 720 mmHg 73%
    20:00 +20°C° 0 mm 2 mps 720 mmHg 80%
    21:00 +19°C° 0 mm 2 mps 720 mmHg 80%
    22:00 +19°C° 0 mm 2 mps 720 mmHg 79%
    23:00 +18°C° 0 mm 2 mps 720 mmHg 78%
    Show more